Вернуться в каталог

CZ-6A DEB

АктивенPO
NORAD 56591·DEBRIS·🇨🇳 China

Запущен Nov 11, 2022 с Taiyuan Satellite Launch Center

Loading…

Ближайшие Пролёты (ближайшие 24 часа)

TLE

СвежийSource: Space-Track

Эпоха: Sep 14, 2026, 01:00 UTC

1 56591U 22151ADP 26257.04176331  .00000093  00000-0  13828-3 0  9991
2 56591  99.0950 172.7930 0290215  72.6709 290.5957 13.57819726168033

Отслеживайте CZ-6A DEB в реальном времени с AllMySat

Download on the App Store